| time (UTC) | temp C | wind direction | speed KPH | gust KPH | rain 1hr cm | rain 24hr cm | rain mn cm | humidity % | barometer mb |
| 20260510120439 | 18 | 41 | 0.0 | 0.0 | 0.00 | 0.00 | 0.00 | 95 | 1013.6 |
| 20260510115934 | 18 | 254 | 0.0 | 0.0 | 0.00 | 0.00 | 0.00 | 95 | 1013.2 |
| 20260510115432 | 18 | 128 | 0.0 | 0.0 | 0.00 | 0.00 | 0.00 | 95 | 1013.2 |
| 20260510114927 | 18 | 128 | 0.0 | 0.0 | 0.00 | 0.00 | 0.00 | 94 | 1013.6 |
| 20260510114425 | 19 | 132 | 0.0 | 0.0 | 0.00 | 0.00 | 0.00 | 95 | 1013.6 |
| 20260510113920 | 19 | 130 | 0.0 | 0.0 | 0.00 | 0.00 | 0.00 | 95 | 1013.2 |
| 20260510113416 | 19 | 130 | 0.0 | 0.0 | 0.00 | 0.00 | 0.00 | 94 | 1013.2 |
| 20260510112913 | 19 | 126 | 0.0 | 0.0 | 0.00 | 0.00 | 0.00 | 94 | 1013.6 |
| 20260510112411 | 19 | 130 | 0.0 | 0.0 | 0.00 | 0.00 | 0.00 | 95 | 1013.2 |
| 20260510111907 | 18 | 130 | 0.0 | 0.0 | 0.00 | 0.00 | 0.00 | 94 | 1013.2 |
| 20260510111403 | 18 | 128 | 0.0 | 0.0 | 0.00 | 0.00 | 0.00 | 94 | 1013.2 |
| 20260510110858 | 18 | 132 | 0.0 | 0.0 | 0.00 | 0.00 | 0.00 | 94 | 1013.6 |
| 20260510110355 | 19 | 127 | 0.0 | 0.0 | 0.00 | 0.00 | 0.00 | 93 | 1013.2 |
| 20260510105851 | 19 | 128 | 0.0 | 0.0 | 0.00 | 0.00 | 0.00 | 93 | 1013.2 |
| 20260510105351 | 19 | 128 | 0.0 | 0.0 | 0.00 | 0.00 | 0.00 | 93 | 1013.6 |
| 20260510104847 | 19 | 128 | 0.0 | 0.0 | 0.00 | 0.00 | 0.00 | 92 | 1013.6 |
| 20260510104344 | 19 | 126 | 0.0 | 0.0 | 0.00 | 0.00 | 0.00 | 93 | 1013.6 |
| 20260510103840 | 19 | 125 | 0.0 | 0.0 | 0.00 | 0.00 | 0.00 | 92 | 1013.6 |
| 20260510103338 | 19 | 124 | 0.0 | 0.0 | 0.00 | 0.00 | 0.00 | 92 | 1013.6 |
| 20260510102833 | 20 | 125 | 0.0 | 0.0 | 0.00 | 0.00 | 0.00 | 92 | 1013.6 |
| 20260510102329 | 20 | 125 | 0.0 | 0.0 | 0.00 | 0.00 | 0.00 | 92 | 1013.9 |
| 20260510101826 | 20 | 125 | 0.0 | 0.0 | 0.00 | 0.00 | 0.00 | 92 | 1013.9 |
| 20260510101325 | 20 | 126 | 0.0 | 0.0 | 0.00 | 0.00 | 0.00 | 91 | 1013.6 |
| 20260510100820 | 20 | 125 | 0.0 | 0.0 | 0.00 | 0.00 | 0.00 | 91 | 1013.9 |
| 20260510100318 | 20 | 125 | 0.0 | 0.0 | 0.00 | 0.00 | 0.00 | 90 | 1013.6 |
| 20260510095814 | 20 | 124 | 1.6 | 1.6 | 0.00 | 0.00 | 0.00 | 89 | 1013.6 |
| 20260510095309 | 20 | 116 | 0.0 | 1.6 | 0.00 | 0.00 | 0.00 | 88 | 1013.9 |
| 20260510094809 | 20 | 112 | 0.0 | 1.6 | 0.00 | 0.00 | 0.00 | 88 | 1013.6 |
| 20260510094304 | 20 | 122 | 1.6 | 3.2 | 0.00 | 0.00 | 0.00 | 88 | 1013.6 |
| 20260510093800 | 20 | 148 | 0.0 | 0.0 | 0.00 | 0.00 | 0.00 | 89 | 1013.6 |
| 20260510093257 | 20 | 127 | 0.0 | 0.0 | 0.00 | 0.00 | 0.00 | 89 | 1013.6 |
| 20260510092753 | 20 | 128 | 0.0 | 0.0 | 0.00 | 0.00 | 0.00 | 89 | 1013.6 |
| 20260510092249 | 20 | 128 | 0.0 | 0.0 | 0.00 | 0.00 | 0.00 | 89 | 1013.2 |
| 20260510091745 | 20 | 128 | 0.0 | 0.0 | 0.00 | 0.00 | 0.00 | 89 | 1013.2 |
| 20260510091242 | 20 | 128 | 0.0 | 0.0 | 0.00 | 0.00 | 0.00 | 89 | 1013.2 |
| 20260510090738 | 20 | 128 | 0.0 | 0.0 | 0.00 | 0.00 | 0.00 | 88 | 1013.2 |
| 20260510090236 | 20 | 128 | 0.0 | 0.0 | 0.00 | 0.00 | 0.00 | 88 | 1013.2 |
| 20260510085731 | 20 | 128 | 0.0 | 0.0 | 0.00 | 0.00 | 0.00 | 87 | 1013.2 |
| 20260510085226 | 20 | 128 | 0.0 | 0.0 | 0.00 | 0.00 | 0.00 | 87 | 1013.2 |
| 20260510084722 | 21 | 128 | 0.0 | 0.0 | 0.00 | 0.00 | 0.00 | 86 | 1013.2 |
| 20260510084219 | 21 | 128 | 0.0 | 0.0 | 0.00 | 0.00 | 0.00 | 85 | 1013.2 |
| 20260510083716 | 21 | 130 | 0.0 | 0.0 | 0.00 | 0.00 | 0.00 | 86 | 1013.2 |
| 20260510083213 | 21 | 132 | 0.0 | 0.0 | 0.00 | 0.00 | 0.00 | 84 | 1013.6 |
| 20260510082708 | 21 | 131 | 0.0 | 1.6 | 0.00 | 0.00 | 0.00 | 85 | 1013.6 |
| 20260510082205 | 21 | 131 | 0.0 | 0.0 | 0.00 | 0.00 | 0.00 | 85 | 1013.2 |
| 20260510081704 | 21 | 131 | 0.0 | 0.0 | 0.00 | 0.00 | 0.00 | 85 | 1013.2 |
| 20260510081201 | 21 | 131 | 0.0 | 0.0 | 0.00 | 0.00 | 0.00 | 84 | 1012.9 |
| 20260510080655 | 21 | 131 | 0.0 | 0.0 | 0.00 | 0.00 | 0.00 | 83 | 1013.6 |
| 20260510080152 | 22 | 134 | 0.0 | 0.0 | 0.00 | 0.00 | 0.00 | 83 | 1013.6 |
| 20260510075649 | 22 | 136 | 0.0 | 0.0 | 0.00 | 0.00 | 0.00 | 81 | 1013.2 |
| 20260510075146 | 22 | 136 | 0.0 | 1.6 | 0.00 | 0.00 | 0.00 | 81 | 1013.2 |
| 20260510074643 | 22 | 136 | 1.6 | 1.6 | 0.00 | 0.00 | 0.00 | 81 | 1013.2 |
| 20260510074139 | 22 | 136 | 0.0 | 0.0 | 0.00 | 0.00 | 0.00 | 81 | 1012.9 |
| 20260510073636 | 22 | 139 | 0.0 | 0.0 | 0.00 | 0.00 | 0.00 | 81 | 1013.2 |
| 20260510073132 | 22 | 142 | 0.0 | 0.0 | 0.00 | 0.00 | 0.00 | 80 | 1013.2 |
| 20260510072628 | 22 | 139 | 0.0 | 0.0 | 0.00 | 0.00 | 0.00 | 79 | 1012.9 |
| 20260510072125 | 22 | 148 | 0.0 | 1.6 | 0.00 | 0.00 | 0.00 | 80 | 1012.9 |
| 20260510071620 | 22 | 142 | 0.0 | 0.0 | 0.00 | 0.00 | 0.00 | 80 | 1012.9 |
| 20260510071118 | 22 | 148 | 0.0 | 1.6 | 0.00 | 0.00 | 0.00 | 80 | 1012.9 |
| 20260510070615 | 22 | 151 | 0.0 | 1.6 | 0.00 | 0.00 | 0.00 | 80 | 1012.9 |
| 20260510070112 | 22 | 145 | 1.6 | 1.6 | 0.00 | 0.00 | 0.00 | 80 | 1013.2 |
| 20260510065603 | 22 | 154 | 1.6 | 3.2 | 0.00 | 0.00 | 0.00 | 80 | 1012.9 |
| 20260510065059 | 22 | 142 | 0.0 | 1.6 | 0.00 | 0.00 | 0.00 | 81 | 1013.2 |
| 20260510064555 | 23 | 147 | 1.6 | 1.6 | 0.00 | 0.00 | 0.00 | 81 | 1013.2 |
| 20260510064052 | 23 | 142 | 0.0 | 0.0 | 0.00 | 0.00 | 0.00 | 81 | 1013.2 |
| 20260510063549 | 23 | 159 | 1.6 | 1.6 | 0.00 | 0.00 | 0.00 | 80 | 1012.9 |
| 20260510063046 | 23 | 166 | 1.6 | 1.6 | 0.00 | 0.00 | 0.00 | 80 | 1012.9 |
| 20260510062542 | 23 | 162 | 1.6 | 3.2 | 0.00 | 0.00 | 0.00 | 80 | 1013.2 |
| 20260510062037 | 23 | 149 | 1.6 | 3.2 | 0.00 | 0.00 | 0.00 | 81 | 1013.2 |
| 20260510061534 | 23 | 174 | 1.6 | 3.2 | 0.00 | 0.00 | 0.00 | 81 | 1013.2 |
| 20260510061031 | 23 | 150 | 1.6 | 1.6 | 0.00 | 0.00 | 0.00 | 82 | 1013.2 |
| 20260510060527 | 23 | 156 | 1.6 | 1.6 | 0.00 | 0.00 | 0.00 | 83 | 1013.2 |
| 20260510060023 | 23 | 143 | 0.0 | 1.6 | 0.00 | 0.00 | 0.00 | 83 | 1013.2 |
| 20260510055519 | 23 | 139 | 0.0 | 0.0 | 0.00 | 0.00 | 0.00 | 83 | 1013.2 |
| 20260510055018 | 23 | 139 | 0.0 | 0.0 | 0.00 | 0.00 | 0.00 | 82 | 1013.2 |
| 20260510054513 | 24 | 141 | 0.0 | 0.0 | 0.00 | 0.00 | 0.00 | 80 | 1013.2 |
| 20260510054009 | 24 | 138 | 1.6 | 1.6 | 0.00 | 0.00 | 0.00 | 79 | 1012.9 |
| 20260510053503 | 24 | 142 | 1.6 | 1.6 | 0.00 | 0.00 | 0.00 | 79 | 1012.9 |
| 20260510053000 | 24 | 136 | 0.0 | 1.6 | 0.00 | 0.00 | 0.00 | 79 | 1012.9 |
| 20260510052456 | 24 | 173 | 4.8 | 4.8 | 0.00 | 0.00 | 0.00 | 79 | 1012.9 |
| 20260510051953 | 25 | 138 | 1.6 | 1.6 | 0.00 | 0.00 | 0.00 | 79 | 1012.9 |
| 20260510051448 | 25 | 136 | 0.0 | 0.0 | 0.00 | 0.00 | 0.00 | 79 | 1012.9 |
| 20260510050945 | 25 | 144 | 0.0 | 0.0 | 0.00 | 0.00 | 0.00 | 78 | 1012.9 |
| 20260510050442 | 25 | 145 | 3.2 | 4.8 | 0.00 | 0.00 | 0.00 | 78 | 1012.5 |
| 20260510045939 | 25 | 171 | 1.6 | 3.2 | 0.00 | 0.05 | 0.05 | 78 | 1012.9 |
| 20260510045436 | 25 | 155 | 3.2 | 3.2 | 0.00 | 0.05 | 0.05 | 79 | 1012.9 |
| 20260510044933 | 25 | 171 | 3.2 | 3.2 | 0.00 | 0.05 | 0.05 | 79 | 1012.5 |
| 20260510044430 | 25 | 147 | 1.6 | 1.6 | 0.00 | 0.05 | 0.05 | 79 | 1012.5 |
| 20260510043926 | 25 | 159 | 4.8 | 4.8 | 0.00 | 0.05 | 0.05 | 79 | 1012.9 |
| 20260510043422 | 25 | 139 | 0.0 | 1.6 | 0.00 | 0.05 | 0.05 | 79 | 1012.5 |
| 20260510042921 | 25 | 164 | 3.2 | 4.8 | 0.00 | 0.05 | 0.05 | 79 | 1012.5 |
| 20260510042416 | 25 | 145 | 1.6 | 1.6 | 0.00 | 0.05 | 0.05 | 79 | 1012.5 |
| 20260510041912 | 25 | 141 | 1.6 | 1.6 | 0.00 | 0.05 | 0.05 | 79 | 1012.5 |
| 20260510041410 | 25 | 139 | 0.0 | 1.6 | 0.00 | 0.05 | 0.05 | 78 | 1012.5 |
| 20260510040907 | 25 | 148 | 1.6 | 1.6 | 0.00 | 0.05 | 0.05 | 78 | 1012.5 |
| 20260510040404 | 26 | 161 | 3.2 | 3.2 | 0.00 | 0.05 | 0.05 | 77 | 1012.5 |
| 20260510035900 | 26 | 157 | 1.6 | 3.2 | 0.00 | 0.05 | 0.05 | 77 | 1012.5 |
| 20260510035356 | 26 | 139 | 1.6 | 3.2 | 0.00 | 0.05 | 0.05 | 77 | 1012.5 |
| 20260510034851 | 26 | 138 | 3.2 | 4.8 | 0.00 | 0.05 | 0.05 | 76 | 1012.5 |
| 20260510034349 | 25 | 124 | 3.2 | 4.8 | 0.00 | 0.05 | 0.05 | 78 | 1012.5 |
| 20260510033845 | 25 | 122 | 0.0 | 0.0 | 0.00 | 0.05 | 0.05 | 80 | 1012.2 |
| 20260510033342 | 25 | 122 | 0.0 | 0.0 | 0.00 | 0.05 | 0.05 | 80 | 1012.2 |
| 20260510032838 | 25 | 121 | 0.0 | 0.0 | 0.00 | 0.05 | 0.05 | 78 | 1012.2 |
| 20260510032336 | 25 | 120 | 1.6 | 1.6 | 0.00 | 0.05 | 0.05 | 79 | 1011.9 |
| 20260510031831 | 25 | 130 | 0.0 | 0.0 | 0.00 | 0.05 | 0.05 | 81 | 1011.9 |
| 20260510031326 | 25 | 131 | 0.0 | 0.0 | 0.00 | 0.05 | 0.05 | 81 | 1011.5 |
| 20260510030821 | 25 | 132 | 0.0 | 0.0 | 0.00 | 0.05 | 0.05 | 80 | 1011.9 |
| 20260510030318 | 25 | 135 | 0.0 | 0.0 | 0.00 | 0.05 | 0.05 | 80 | 1011.5 |
| 20260510025815 | 25 | 136 | 0.0 | 0.0 | 0.00 | 0.05 | 0.05 | 79 | 1011.5 |
| 20260510025312 | 25 | 136 | 0.0 | 0.0 | 0.00 | 0.05 | 0.05 | 78 | 1011.5 |
| 20260510024809 | 25 | 136 | 0.0 | 0.0 | 0.00 | 0.05 | 0.05 | 78 | 1011.5 |
| 20260510024306 | 26 | 137 | 0.0 | 0.0 | 0.00 | 0.05 | 0.05 | 77 | 1011.9 |
| 20260510023802 | 26 | 142 | 1.6 | 1.6 | 0.00 | 0.05 | 0.05 | 76 | 1011.5 |
| 20260510023259 | 27 | 142 | 0.0 | 0.0 | 0.00 | 0.05 | 0.05 | 73 | 1011.5 |
| 20260510022755 | 27 | 128 | 0.0 | 0.0 | 0.00 | 0.05 | 0.05 | 71 | 1011.2 |
| 20260510022250 | 27 | 130 | 0.0 | 0.0 | 0.00 | 0.05 | 0.05 | 71 | 1011.2 |
| 20260510021749 | 27 | 136 | 0.0 | 0.0 | 0.00 | 0.05 | 0.05 | 71 | 1011.5 |
| 20260510021247 | 27 | 130 | 0.0 | 1.6 | 0.00 | 0.05 | 0.05 | 70 | 1011.2 |
| 20260510020743 | 27 | 132 | 0.0 | 0.0 | 0.00 | 0.05 | 0.05 | 70 | 1011.2 |
| 20260510020243 | 28 | 130 | 1.6 | 3.2 | 0.00 | 0.05 | 0.05 | 69 | 1011.2 |
| 20260510015739 | 28 | 135 | 1.6 | 1.6 | 0.00 | 0.05 | 0.05 | 68 | 1011.2 |
| 20260510015235 | 28 | 131 | 1.6 | 1.6 | 0.00 | 0.05 | 0.05 | 68 | 1011.2 |
| 20260510014730 | 28 | 131 | 1.6 | 1.6 | 0.00 | 0.05 | 0.05 | 67 | 1011.2 |
| 20260510014228 | 28 | 132 | 1.6 | 1.6 | 0.00 | 0.05 | 0.05 | 66 | 1011.2 |
| 20260510013724 | 28 | 128 | 0.0 | 1.6 | 0.00 | 0.05 | 0.05 | 65 | 1010.9 |
| 20260510013219 | 28 | 135 | 1.6 | 1.6 | 0.00 | 0.05 | 0.05 | 65 | 1010.5 |
| 20260510012719 | 28 | 130 | 1.6 | 1.6 | 0.00 | 0.05 | 0.05 | 64 | 1010.9 |
| 20260510012215 | 29 | 138 | 4.8 | 9.7 | 0.00 | 0.05 | 0.05 | 62 | 1010.5 |
| 20260510011709 | 29 | 142 | 0.0 | 0.0 | 0.00 | 0.05 | 0.05 | 62 | 1010.5 |
| 20260510011205 | 29 | 136 | 0.0 | 1.6 | 0.00 | 0.05 | 0.05 | 61 | 1010.9 |
| 20260510010702 | 30 | 136 | 1.6 | 3.2 | 0.00 | 0.05 | 0.05 | 60 | 1010.5 |
| 20260510010159 | 30 | 130 | 0.0 | 1.6 | 0.00 | 0.05 | 0.05 | 59 | 1010.2 |
| 20260510005655 | 30 | 158 | 1.6 | 3.2 | 0.00 | 0.05 | 0.05 | 58 | 1010.2 |
| 20260510005151 | 30 | 137 | 3.2 | 3.2 | 0.00 | 0.05 | 0.05 | 58 | 1010.5 |
| 20260510004650 | 30 | 137 | 4.8 | 4.8 | 0.00 | 0.05 | 0.05 | 57 | 1010.5 |
| 20260510004148 | 30 | 154 | 4.8 | 8.0 | 0.00 | 0.05 | 0.05 | 57 | 1010.2 |
| 20260510003645 | 31 | 154 | 4.8 | 4.8 | 0.00 | 0.05 | 0.05 | 56 | 1010.2 |
| 20260510003140 | 31 | 135 | 4.8 | 8.0 | 0.00 | 0.05 | 0.05 | 55 | 1010.2 |
| 20260510002640 | 31 | 136 | 3.2 | 4.8 | 0.00 | 0.05 | 0.05 | 55 | 1010.2 |
| 20260510002137 | 31 | 190 | 4.8 | 4.8 | 0.00 | 0.05 | 0.05 | 55 | 1010.2 |
| 20260510001634 | 31 | 179 | 8.0 | 8.0 | 0.00 | 0.05 | 0.05 | 54 | 1010.2 |
| 20260510001133 | 32 | 170 | 9.7 | 12.9 | 0.00 | 0.05 | 0.05 | 52 | 1009.8 |
| 20260510000633 | 32 | 161 | 3.2 | 3.2 | 0.00 | 0.05 | 0.05 | 48 | 1010.2 |
| 20260510000131 | 32 | 162 | 6.4 | 8.0 | 0.00 | 0.05 | 0.05 | 48 | 1009.8 |
| 20260509235627 | 32 | 169 | 9.7 | 11.3 | 0.00 | 0.05 | 0.05 | 48 | 1009.5 |
| 20260509235124 | 32 | 171 | 4.8 | 4.8 | 0.00 | 0.05 | 0.05 | 49 | 1009.5 |
| 20260509234619 | 32 | 149 | 8.0 | 11.3 | 0.00 | 0.05 | 0.05 | 49 | 1009.5 |
| 20260509234118 | 32 | 182 | 4.8 | 4.8 | 0.00 | 0.05 | 0.05 | 49 | 1009.8 |
| 20260509233615 | 32 | 179 | 4.8 | 4.8 | 0.00 | 0.05 | 0.05 | 50 | 1009.5 |
| 20260509233112 | 32 | 189 | 3.2 | 4.8 | 0.00 | 0.05 | 0.05 | 49 | 1009.5 |
| 20260509232608 | 32 | 193 | 6.4 | 8.0 | 0.00 | 0.05 | 0.05 | 49 | 1009.2 |
| 20260509232106 | 33 | 173 | 4.8 | 4.8 | 0.00 | 0.05 | 0.05 | 51 | 1009.2 |
| 20260509231602 | 33 | 168 | 6.4 | 9.7 | 0.00 | 0.05 | 0.05 | 50 | 1009.5 |
| 20260509231059 | 33 | 184 | 1.6 | 3.2 | 0.00 | 0.05 | 0.05 | 50 | 1009.8 |
| 20260509230556 | 33 | 179 | 4.8 | 4.8 | 0.00 | 0.05 | 0.05 | 51 | 1009.8 |
| 20260509230053 | 32 | 165 | 4.8 | 4.8 | 0.00 | 0.05 | 0.05 | 51 | 1009.8 |
| 20260509225549 | 32 | 180 | 8.0 | 11.3 | 0.00 | 0.05 | 0.05 | 52 | 1009.8 |
| 20260509225044 | 33 | 183 | 4.8 | 8.0 | 0.00 | 0.05 | 0.05 | 51 | 1010.2 |
| 20260509224540 | 33 | 174 | 6.4 | 8.0 | 0.00 | 0.05 | 0.05 | 52 | 1010.2 |
| 20260509224037 | 33 | 174 | 4.8 | 4.8 | 0.00 | 0.05 | 0.05 | 51 | 1009.8 |
| 20260509223534 | 33 | 164 | 1.6 | 3.2 | 0.00 | 0.05 | 0.05 | 51 | 1009.8 |
| 20260509223032 | 33 | 169 | 11.3 | 11.3 | 0.00 | 0.05 | 0.05 | 51 | 1009.5 |
| 20260509222528 | 33 | 191 | 4.8 | 8.0 | 0.00 | 0.05 | 0.05 | 52 | 1009.5 |
| 20260509222023 | 33 | 139 | 8.0 | 9.7 | 0.00 | 0.05 | 0.05 | 51 | 1009.8 |
| 20260509221520 | 33 | 96 | 1.6 | 1.6 | 0.00 | 0.05 | 0.05 | 51 | 1009.5 |
| 20260509221016 | 33 | 131 | 4.8 | 4.8 | 0.00 | 0.05 | 0.05 | 51 | 1009.8 |
| 20260509220512 | 33 | 151 | 1.6 | 1.6 | 0.00 | 0.05 | 0.05 | 50 | 1009.8 |
| 20260509220008 | 33 | 207 | 4.8 | 4.8 | 0.00 | 0.05 | 0.05 | 52 | 1009.8 |
| 20260509215503 | 32 | 186 | 3.2 | 3.2 | 0.00 | 0.05 | 0.05 | 53 | 1009.8 |
| 20260509215001 | 32 | 173 | 4.8 | 4.8 | 0.00 | 0.05 | 0.05 | 54 | 1009.8 |
| 20260509214458 | 32 | 131 | 1.6 | 1.6 | 0.00 | 0.05 | 0.05 | 53 | 1010.2 |
| 20260509213955 | 32 | 144 | 4.8 | 4.8 | 0.00 | 0.05 | 0.05 | 54 | 1009.8 |
| 20260509213451 | 32 | 160 | 4.8 | 8.0 | 0.00 | 0.05 | 0.05 | 54 | 1009.8 |
| 20260509212948 | 33 | 157 | 3.2 | 4.8 | 0.00 | 0.05 | 0.05 | 53 | 1010.2 |
| 20260509212445 | 33 | 168 | 1.6 | 3.2 | 0.00 | 0.05 | 0.05 | 54 | 1009.8 |
| 20260509211942 | 33 | 131 | 4.8 | 8.0 | 0.00 | 0.05 | 0.05 | 54 | 1010.2 |
| 20260509211437 | 33 | 124 | 3.2 | 3.2 | 0.00 | 0.05 | 0.05 | 54 | 1009.8 |
| 20260509210934 | 33 | 167 | 3.2 | 3.2 | 0.00 | 0.05 | 0.05 | 55 | 1009.8 |
| 20260509210431 | 33 | 152 | 3.2 | 4.8 | 0.00 | 0.05 | 0.05 | 54 | 1010.2 |
| 20260509205927 | 32 | 176 | 1.6 | 1.6 | 0.00 | 0.05 | 0.05 | 56 | 1010.2 |
| 20260509205421 | 32 | 179 | 1.6 | 1.6 | 0.00 | 0.05 | 0.05 | 55 | 1010.2 |
| 20260509204917 | 32 | 164 | 6.4 | 8.0 | 0.00 | 0.05 | 0.05 | 54 | 1010.2 |
| 20260509204414 | 32 | 185 | 1.6 | 3.2 | 0.00 | 0.05 | 0.05 | 55 | 1010.2 |
| 20260509203910 | 32 | 168 | 1.6 | 3.2 | 0.00 | 0.05 | 0.05 | 58 | 1010.5 |
| 20260509203406 | 32 | 186 | 4.8 | 4.8 | 0.00 | 0.05 | 0.05 | 58 | 1010.5 |
| 20260509202904 | 32 | 215 | 1.6 | 3.2 | 0.00 | 0.05 | 0.05 | 58 | 1010.5 |
| 20260509202359 | 32 | 185 | 4.8 | 4.8 | 0.00 | 0.05 | 0.05 | 56 | 1010.5 |
| 20260509201855 | 32 | 152 | 8.0 | 11.3 | 0.00 | 0.05 | 0.05 | 58 | 1010.9 |
| 20260509201350 | 31 | 148 | 6.4 | 8.0 | 0.00 | 0.05 | 0.05 | 59 | 1010.9 |
| 20260509200848 | 31 | 189 | 1.6 | 3.2 | 0.00 | 0.05 | 0.05 | 62 | 1010.9 |
| 20260509200342 | 31 | 236 | 3.2 | 3.2 | 0.00 | 0.05 | 0.05 | 61 | 1011.2 |
| 20260509195840 | 31 | 164 | 1.6 | 1.6 | 0.00 | 0.05 | 0.05 | 60 | 1011.2 |
| 20260509195339 | 32 | 209 | 3.2 | 4.8 | 0.00 | 0.05 | 0.05 | 58 | 1011.2 |
| 20260509194839 | 32 | 224 | 1.6 | 1.6 | 0.00 | 0.05 | 0.05 | 58 | 1011.2 |
| 20260509194336 | 32 | 215 | 6.4 | 8.0 | 0.00 | 0.05 | 0.05 | 58 | 1011.5 |
| 20260509193833 | 32 | 176 | 6.4 | 8.0 | 0.00 | 0.05 | 0.05 | 55 | 1011.5 |
| 20260509193332 | 32 | 172 | 1.6 | 1.6 | 0.00 | 0.05 | 0.05 | 57 | 1011.5 |
| 20260509192829 | 31 | 209 | 6.4 | 8.0 | 0.00 | 0.05 | 0.05 | 58 | 1011.9 |
| 20260509192325 | 32 | 258 | 6.4 | 11.3 | 0.00 | 0.05 | 0.05 | 56 | 1011.9 |
| 20260509191820 | 31 | 186 | 4.8 | 4.8 | 0.00 | 0.05 | 0.05 | 57 | 1011.9 |
| 20260509191316 | 31 | 349 | 4.8 | 4.8 | 0.00 | 0.05 | 0.05 | 59 | 1011.9 |
| 20260509190812 | 31 | 325 | 3.2 | 3.2 | 0.00 | 0.05 | 0.05 | 60 | 1011.9 |
| 20260509190310 | 31 | 285 | 3.2 | 3.2 | 0.00 | 0.05 | 0.05 | 61 | 1011.9 |
| 20260509185807 | 31 | 352 | 1.6 | 1.6 | 0.00 | 0.05 | 0.05 | 61 | 1011.9 |
| 20260509185306 | 31 | 280 | 3.2 | 3.2 | 0.00 | 0.05 | 0.05 | 62 | 1012.2 |
| 20260509184800 | 30 | 268 | 3.2 | 4.8 | 0.00 | 0.05 | 0.05 | 61 | 1011.9 |
| 20260509184258 | 30 | 204 | 1.6 | 3.2 | 0.00 | 0.05 | 0.05 | 64 | 1012.2 |
| 20260509183754 | 30 | 339 | 6.4 | 11.3 | 0.00 | 0.05 | 0.05 | 62 | 1012.2 |
| 20260509183249 | 31 | 262 | 3.2 | 4.8 | 0.00 | 0.05 | 0.05 | 62 | 1012.2 |
| 20260509182745 | 31 | 185 | 1.6 | 1.6 | 0.00 | 0.05 | 0.05 | 64 | 1012.2 |
| 20260509182243 | 31 | 301 | 4.8 | 4.8 | 0.00 | 0.05 | 0.05 | 64 | 1012.5 |
| 20260509181735 | 31 | 269 | 1.6 | 3.2 | 0.00 | 0.05 | 0.05 | 61 | 1012.5 |
| 20260509181232 | 31 | 181 | 4.8 | 4.8 | 0.00 | 0.05 | 0.05 | 62 | 1012.5 |
| 20260509180729 | 30 | 201 | 4.8 | 8.0 | 0.00 | 0.05 | 0.05 | 64 | 1012.5 |
| 20260509180225 | 31 | 260 | 3.2 | 4.8 | 0.00 | 0.05 | 0.05 | 63 | 1012.5 |
| 20260509175722 | 30 | 160 | 1.6 | 3.2 | 0.00 | 0.05 | 0.05 | 62 | 1012.5 |
| 20260509175218 | 30 | 229 | 6.4 | 9.7 | 0.00 | 0.05 | 0.05 | 65 | 1012.5 |
| 20260509174714 | 30 | 205 | 4.8 | 4.8 | 0.00 | 0.05 | 0.05 | 65 | 1012.5 |
| 20260509174209 | 29 | 257 | 3.2 | 3.2 | 0.00 | 0.05 | 0.05 | 67 | 1012.9 |
| 20260509173706 | 29 | 245 | 4.8 | 8.0 | 0.00 | 0.05 | 0.05 | 67 | 1012.9 |
| 20260509173201 | 29 | 290 | 3.2 | 3.2 | 0.00 | 0.05 | 0.05 | 69 | 1012.9 |
| 20260509172658 | 28 | 228 | 3.2 | 4.8 | 0.00 | 0.05 | 0.05 | 70 | 1012.9 |
| 20260509172154 | 28 | 204 | 4.8 | 4.8 | 0.00 | 0.05 | 0.05 | 70 | 1012.9 |
| 20260509171649 | 29 | 214 | 6.4 | 8.0 | 0.00 | 0.05 | 0.05 | 70 | 1012.9 |
| 20260509171146 | 28 | 297 | 6.4 | 8.0 | 0.00 | 0.05 | 0.05 | 71 | 1012.9 |
| 20260509170643 | 28 | 207 | 4.8 | 4.8 | 0.00 | 0.05 | 0.05 | 73 | 1012.9 |
| 20260509170139 | 28 | 191 | 4.8 | 4.8 | 0.00 | 0.05 | 0.05 | 77 | 1013.2 |
| 20260509165637 | 28 | 316 | 4.8 | 8.0 | 0.00 | 0.05 | 0.05 | 77 | 1013.2 |
| 20260509165133 | 28 | 208 | 3.2 | 3.2 | 0.00 | 0.05 | 0.05 | 77 | 1012.9 |
| 20260509164629 | 28 | 290 | 6.4 | 8.0 | 0.00 | 0.05 | 0.05 | 77 | 1012.9 |
| 20260509164125 | 27 | 266 | 4.8 | 4.8 | 0.00 | 0.05 | 0.05 | 78 | 1013.2 |
| 20260509163623 | 28 | 215 | 6.4 | 9.7 | 0.00 | 0.05 | 0.05 | 77 | 1013.2 |
| 20260509163118 | 27 | 201 | 4.8 | 8.0 | 0.00 | 0.05 | 0.05 | 77 | 1012.9 |
| 20260509162616 | 27 | 178 | 3.2 | 3.2 | 0.00 | 0.05 | 0.05 | 76 | 1013.2 |
| 20260509162112 | 27 | 287 | 4.8 | 8.0 | 0.00 | 0.05 | 0.05 | 76 | 1012.9 |
| 20260509161608 | 26 | 242 | 9.7 | 11.3 | 0.00 | 0.05 | 0.05 | 76 | 1012.9 |
| 20260509161108 | 27 | 255 | 8.0 | 11.3 | 0.00 | 0.05 | 0.05 | 77 | 1012.5 |
| 20260509160605 | 26 | 236 | 4.8 | 4.8 | 0.00 | 0.05 | 0.05 | 79 | 1012.5 |
| 20260509160100 | 26 | 223 | 4.8 | 8.0 | 0.00 | 0.05 | 0.05 | 77 | 1012.9 |
| 20260509155556 | 26 | 104 | 3.2 | 3.2 | 0.00 | 0.05 | 0.05 | 78 | 1012.9 |
| 20260509155052 | 26 | 48 | 3.2 | 3.2 | 0.00 | 0.05 | 0.05 | 81 | 1012.9 |
| 20260509154543 | 26 | 34 | 1.6 | 3.2 | 0.00 | 0.05 | 0.05 | 79 | 1013.2 |
| 20260509154041 | 26 | 53 | 1.6 | 3.2 | 0.00 | 0.05 | 0.05 | 81 | 1012.9 |
| 20260509153538 | 25 | 52 | 1.6 | 1.6 | 0.00 | 0.05 | 0.05 | 81 | 1013.2 |
| 20260509153035 | 25 | 43 | 3.2 | 3.2 | 0.00 | 0.05 | 0.05 | 83 | 1013.2 |
| 20260509152530 | 25 | 88 | 1.6 | 1.6 | 0.00 | 0.05 | 0.05 | 83 | 1013.6 |
| 20260509152028 | 24 | 52 | 1.6 | 1.6 | 0.00 | 0.05 | 0.05 | 90 | 1013.6 |
| 20260509151524 | 24 | 20 | 1.6 | 1.6 | 0.00 | 0.05 | 0.05 | 94 | 1013.6 |
| 20260509151022 | 23 | 72 | 1.6 | 1.6 | 0.00 | 0.05 | 0.05 | 95 | 1013.6 |
| 20260509150519 | 23 | 68 | 1.6 | 1.6 | 0.00 | 0.05 | 0.05 | 95 | 1013.9 |
| 20260509150018 | 22 | 83 | 1.6 | 3.2 | 0.05 | 0.05 | 0.05 | 96 | 1013.6 |
| 20260509145513 | 22 | 110 | 4.8 | 4.8 | 0.05 | 0.05 | 0.05 | 96 | 1013.6 |
| 20260509145008 | 22 | 94 | 3.2 | 3.2 | 0.05 | 0.05 | 0.05 | 97 | 1013.6 |
| 20260509144505 | 22 | 78 | 0.0 | 0.0 | 0.05 | 0.05 | 0.05 | 97 | 1013.6 |
| 20260509144002 | 22 | 116 | 3.2 | 3.2 | 0.03 | 0.03 | 0.03 | 97 | 1013.6 |
| 20260509143459 | 22 | 108 | 3.2 | 3.2 | 0.03 | 0.03 | 0.03 | 97 | 1013.6 |
| 20260509142956 | 22 | 131 | 3.2 | 3.2 | 0.00 | 0.00 | 0.00 | 97 | 1013.6 |
| 20260509142452 | 22 | 82 | 0.0 | 0.0 | 0.00 | 0.00 | 0.00 | 97 | 1013.9 |
| 20260509141948 | 22 | 143 | 6.4 | 9.7 | 0.00 | 0.00 | 0.00 | 97 | 1013.9 |
| 20260509141444 | 22 | 81 | 0.0 | 0.0 | 0.00 | 0.00 | 0.00 | 97 | 1013.9 |
| 20260509140941 | 22 | 85 | 0.0 | 0.0 | 0.00 | 0.00 | 0.00 | 97 | 1013.9 |
| 20260509140437 | 22 | 77 | 0.0 | 0.0 | 0.00 | 0.00 | 0.00 | 97 | 1013.6 |
| 20260509135936 | 22 | 120 | 0.0 | 0.0 | 0.00 | 0.00 | 0.00 | 97 | 1013.6 |
| 20260509135433 | 22 | 123 | 1.6 | 1.6 | 0.00 | 0.00 | 0.00 | 97 | 1013.2 |
| 20260509134930 | 22 | 92 | 0.0 | 0.0 | 0.00 | 0.00 | 0.00 | 97 | 1013.6 |
| 20260509134428 | 22 | 63 | 0.0 | 0.0 | 0.00 | 0.00 | 0.00 | 97 | 1012.9 |
| 20260509133925 | 22 | 60 | 0.0 | 0.0 | 0.00 | 0.00 | 0.00 | 97 | 1012.5 |
| 20260509133421 | 22 | 61 | 0.0 | 0.0 | 0.00 | 0.00 | 0.00 | 97 | 1011.9 |
| 20260509132920 | 22 | 60 | 0.0 | 0.0 | 0.00 | 0.00 | 0.00 | 97 | 1011.9 |
| 20260509132418 | 22 | 69 | 0.0 | 0.0 | 0.00 | 0.00 | 0.00 | 97 | 1011.9 |
| 20260509131914 | 22 | 91 | 0.0 | 0.0 | 0.00 | 0.00 | 0.00 | 97 | 1012.2 |
| 20260509131412 | 22 | 68 | 0.0 | 0.0 | 0.00 | 0.00 | 0.00 | 97 | 1012.5 |
| 20260509130908 | 22 | 68 | 0.0 | 0.0 | 0.00 | 0.00 | 0.00 | 97 | 1012.9 |
| 20260509130403 | 22 | 91 | 3.2 | 3.2 | 0.00 | 0.00 | 0.00 | 97 | 1012.9 |
| 20260509125901 | 22 | 95 | 1.6 | 1.6 | 0.00 | 0.00 | 0.00 | 97 | 1012.9 |
| 20260509125357 | 22 | 82 | 1.6 | 3.2 | 0.00 | 0.00 | 0.00 | 97 | 1013.2 |
| 20260509124853 | 22 | 78 | 0.0 | 1.6 | 0.00 | 0.00 | 0.00 | 97 | 1013.2 |
| 20260509124350 | 22 | 71 | 0.0 | 0.0 | 0.00 | 0.00 | 0.00 | 97 | 1013.6 |
| 20260509123848 | 22 | 67 | 0.0 | 0.0 | 0.00 | 0.00 | 0.00 | 97 | 1013.2 |
| 20260509123345 | 22 | 55 | 0.0 | 0.0 | 0.00 | 0.00 | 0.00 | 97 | 1013.6 |
| 20260509122841 | 22 | 57 | 0.0 | 1.6 | 0.00 | 0.00 | 0.00 | 97 | 1013.2 |
| 20260509122338 | 22 | 45 | 0.0 | 0.0 | 0.00 | 0.00 | 0.00 | 97 | 1013.2 |
| 20260509121835 | 22 | 56 | 1.6 | 3.2 | 0.00 | 0.00 | 0.00 | 97 | 1013.6 |
| 20260509121332 | 22 | 23 | 1.6 | 3.2 | 0.00 | 0.00 | 0.00 | 97 | 1013.6 |